AO-07 1 07530U 74089B 14316.82310340 -.00000008 00000-0 22395-3 0 1174 2 07530 101.4920 293.8595 0012075 006.6841 109.6776 12.53608799830147 FO-29 1 24278U 96046B 14316.85812926 .00000029 00000-0 68020-4 0 5160 2 24278 098.5168 310.2094 0349427 271.8753 153.3414 13.53035535900770 SO-33 1 25509U 98061B 14316.67936634 .00000420 00000-0 70680-4 0 8804 2 25509 031.4334 038.9211 0348756 335.4699 183.7884 14.29737143838411 RS-22 1 27939U 03042A 14317.36867316 .00001735 00000-0 32814-3 0 353 2 27939 097.8187 124.2323 0013483 357.8208 002.2943 14.65500323594570 HO-68 1 36122U 09072B 14317.08241201 -.00000060 00000-0 -43517-4 0 1147 2 36122 100.2294 004.2890 0007126 255.5876 104.4455 13.16320015236029 AO-73 1 39444U 13066AE 14316.76893024 .00003163 00000-0 42124-3 0 3065 2 39444 097.7599 022.2943 0062510 120.1714 240.5711 14.78988628 51427 EO-79 1 40025U 14033R 14317.28909157 .00003886 00000-0 45184-3 0 4332 2 40025 097.9655 212.1659 0013640 164.0618 196.1045 14.85849398 21727 UO-11 1 14781U 84021B 14316.73381344 .00000963 00000-0 12817-3 0 6621 2 14781 097.8343 013.8314 0009665 063.6808 296.5397 14.81887829649965 AO-16 1 20439U 90005D 14316.81892670 .00000209 00000-0 93271-4 0 1706 2 20439 098.5203 251.4372 0011981 082.2709 334.8034 14.32424235295763 LO-19 1 20442U 90005G 14316.77310580 .00000210 00000-0 92965-4 0 1059 2 20442 098.4914 251.6000 0012860 071.7713 288.4870 14.32622891295951 AO-27 1 22825U 93061C 14317.11439794 .00000199 00000-0 94626-4 0 8182 2 22825 098.6805 262.5204 0007914 214.7557 209.3158 14.29779098102063 IO-26 1 22826U 93061D 14316.85587837 .00000199 00000-0 94362-4 0 5752 2 22826 098.6748 262.4595 0008549 207.8327 152.2399 14.30085446102168 GO-32 1 25397U 98043D 14316.82735646 .00000092 00000-0 58889-4 0 4961 2 25397 098.4900 269.4160 0000898 176.4152 244.2775 14.23481765849011 NO-44 1 26931U 01043C 14316.65420297 .00000143 00000-0 86944-4 0 7507 2 26931 067.0532 015.5900 0007496 272.2899 087.7344 14.30188908684835 SO-50 1 27607U 02058C 14315.99914378 .00000838 00000-0 14359-3 0 5733 2 27607 064.5547 141.6614 0065228 332.9251 026.8452 14.74110102639260 CO-55 1 27844U 03031E 14316.71507485 .00000383 00000-0 19462-3 0 680 2 27844 098.6981 323.3532 0009569 200.1480 219.7107 14.21612580589686 CO-57 1 27848U 03031J 14316.83600815 .00000307 00000-0 16091-3 0 106 2 27848 098.7076 323.2648 0009335 206.9580 276.5369 14.21286472589610 AO-51 1 28375U 04025K 14316.82605071 .00000319 00000-0 10783-3 0 9906 2 28375 098.2682 258.7972 0081749 262.9484 096.2404 14.41493777545316 CP3 1 31129U 07012N 14316.85768347 .00001620 00000-0 36312-3 0 8973 2 31129 097.9528 287.4760 0096194 267.8597 148.7079 14.55116470401651 CO-65 1 32785U 08021C 14316.76231780 .00002584 00000-0 30222-3 0 1145 2 32785 097.6811 003.0611 0014977 063.9558 029.9093 14.85843708354084 PRISM 1 33493U 09002B 14317.30378237 .00007104 00000-0 72741-3 0 4791 2 33493 098.2512 139.4752 0016834 320.6369 039.3621 14.90730338314384 SOHLA-1 1 33496U 09002E 14316.84581466 .00000698 00000-0 12206-3 0 5121 2 33496 098.1872 078.3125 0007518 127.2508 034.9168 14.71005713311368 TISAT-1 1 36799U 10035E 14317.23993965 .00004579 00000-0 52153-3 0 7100 2 36799 098.0179 050.4265 0013446 190.7615 221.8447 14.86619470234855 STUDSAT 1 36801U 10035G 14317.19744294 .00026669 00000-0 20841-2 0 9326 2 36801 098.0480 061.6953 0006112 159.4462 262.3106 15.01048363235449 ALMASAT-1 1 38078U 12006B 14317.43529902 .00068977 38535-5 13258-2 0 2108 2 38078 069.4668 057.0911 0556282 192.9213 165.7156 14.59844393143330 XATCOBEO 1 38082U 12006F 14243.34478676 .13583328 43697-5 37939-3 0 5637 2 38082 069.3815 097.0364 0033293 225.1799 135.4582 16.41261006136239 CUBEBUG-1 1 39153U 13018D 14317.17104829 .00002562 00000-0 35970-3 0 6395 2 39153 098.0338 037.1364 0016984 227.6070 132.3703 14.78229326 83554 ESTCUBE-1 1 39161U 13021C 14317.34420002 .00002284 00000-0 38548-3 0 6565 2 39161 098.0873 037.1004 0008582 284.8913 075.1359 14.70398231 81513 DUCHIFAT-1 1 40021U 14033M 14317.27157905 .00005166 00000-0 59369-3 0 4358 2 40021 097.9661 212.2181 0014250 166.0190 194.1461 14.86177988 21715 NANOSATCBR1 1 40024U 14033Q 14317.28352214 .00004609 00000-0 53289-3 0 4268 2 40024 097.9660 212.1743 0013591 163.6107 196.5555 14.85994034 21716 DTUSAT-2 1 40030U 14033W 14317.25833909 .00003708 00000-0 43551-3 0 4245 2 40030 097.9647 212.0367 0012821 156.9720 203.2046 14.85468191 21711 ANTELSAT 1 40034U 14033AA 14317.26018106 .00002733 00000-0 43342-3 0 4328 2 40034 097.9623 208.8759 0062555 090.3558 270.4853 14.71673049 21522 MET-2/21 1 22782U 93055A 14316.82501219 .00000061 00000-0 42149-4 0 2226 2 22782 082.5516 055.3634 0022165 204.9276 305.1863 13.83752624 70679 OKEAN-4 1 23317U 94066A 14316.79701999 .00002304 00000-0 26081-3 0 7073 2 23317 082.5372 288.5625 0019317 331.5674 118.6792 14.85916069 85175 NOAA-14 1 23455U 94089A 14317.23780429 .00000030 00000-0 38646-4 0 9770 2 23455 098.7704 037.9679 0008809 340.9885 078.0271 14.13999952 25014 NOAA-15 1 25338U 98030A 14317.14710765 .00000246 00000-0 12282-3 0 4173 2 25338 098.7625 310.7955 0011651 078.3175 054.4629 14.25503440858060 RESURS 1 25394U 98043A 14316.86077231 .00000082 00000-0 53505-4 0 8065 2 25394 098.4347 275.1217 0001819 148.5405 263.9675 14.24413756849489 FENGYUN1 1 25730U 99025A 14315.85697785 .00003330 00000-0 18249-2 0 2944 2 25730 098.9253 276.1494 0022913 051.7473 000.7319 14.12403287798367 OKEAN-0 1 25860U 99039A 14316.83458453 .00001030 00000-0 15874-3 0 4140 2 25860 098.0642 280.0002 0001000 092.9388 324.0820 14.75546653824070 NOAA-16 1 26536U 00055A 14317.20486520 .00000102 00000-0 78475-4 0 9151 2 26536 098.9731 018.0799 0011499 122.1810 238.0478 14.13052693729154 NOAA-17 1 27453U 02032A 14317.14417342 .00000249 00000-0 12435-3 0 8048 2 27453 098.3233 309.0802 0012926 097.8404 262.4244 14.24811497643890 NOAA-18 1 28654U 05018A 14317.19914968 .00000102 00000-0 81009-4 0 3294 2 28654 099.1653 299.8179 0014040 202.6406 285.8035 14.12096375488597 NOAA-19 1 33591U 09005A 14317.11917203 .00000337 00000-0 20921-3 0 4608 2 33591 098.9624 261.8233 0014931 061.7798 069.1268 14.11802271297009 HUBBLE 1 20580U 90037B 14315.80850291 .00003352 00000-0 21188-3 0 1540 2 20580 028.4691 146.3075 0003521 063.0347 045.4200 15.06135453146994 ISS 1 25544U 98067A 14316.99401744 .00017511 00000-0 30377-3 0 4053 2 25544 051.6389 081.8996 0007886 022.5816 085.1772 15.50927485914413 CO-58 1 28895U 05043F 14316.79372520 .00001218 00000-0 25025-3 0 9207 2 28895 097.8236 150.9013 0016075 260.2665 099.6722 14.62189526481961 FALCON 1 30776U 07006E 14316.94727741 .00012672 00000-0 59595-3 0 32 2 30776 035.4289 271.3595 0003327 213.2101 191.6420 15.18825282423333 MAST 1 31126U 07012K 14316.84465282 .00000892 00000-0 20395-3 0 2014 2 31126 097.9328 290.1462 0090403 250.2704 176.9463 14.55571469402013 CAPE1 1 31130U 07012P 14316.86401551 .00001501 00000-0 33898-3 0 2076 2 31130 097.9542 287.0124 0096800 269.4316 089.5790 14.54839341401425 COMPASS 1 32787U 08021E 14316.88568879 .00004959 00000-0 53353-3 0 981 2 32787 097.6836 006.0824 0014680 054.8492 305.4098 14.88863134354309 AAUSAT2 1 32788U 08021F 14316.68085438 .00005303 00000-0 55888-3 0 850 2 32788 097.6844 007.0596 0014055 053.1108 307.1396 14.89676547354343 DO-64 1 32789U 08021G 14316.76145949 .00008661 00000-0 78599-3 0 1309 2 32789 097.7043 015.1637 0012114 035.6067 090.0334 14.95478766354682 CO-66 1 32791U 08021J 14316.78172656 .00003118 00000-0 35050-3 0 800 2 32791 097.6827 004.4199 0015356 058.7568 301.5150 14.87324306354138 RS-30 1 32953U 08025A 14317.37213612 .00000010 00000-0 -13620-7 0 4613 2 32953 082.4987 108.4534 0018885 189.5249 170.5483 12.43052463293793 METEOR-M 1 35865U 09049A 14317.19198174 .00000185 00000-0 10312-3 0 697 2 35865 098.5315 359.9472 0003157 036.7116 323.4283 14.21949767267515 RS-38 1 35869U 09049E 14317.26741949 .00000120 00000-0 72891-4 0 9748 2 35869 098.5236 359.7510 0005200 028.5803 331.5662 14.22242245267569 JUGNU 1 37839U 11058B 14316.69647541 .00000507 00000-0 12900-3 0 7324 2 37839 019.9625 074.8269 0018756 180.7094 313.4533 14.12368395159577 SRMSAT 1 37841U 11058D 14316.76000361 .00000447 00000-0 10156-3 0 7366 2 37841 019.9724 096.7514 0011785 114.4211 026.4729 14.10398651159356 RAX-2 1 37853U 11061D 14316.86056448 .00006898 00000-0 45784-3 0 9612 2 37853 101.7028 057.5678 0209667 346.0592 123.7477 14.91601210164809 AUBIESAT 1 37854U 11061E 14316.84132488 .00008702 00000-0 55525-3 0 9586 2 37854 101.7070 059.9554 0206791 342.3261 134.4081 14.93168034164874 HRBE 1 37855U 11061F 14316.81557658 .00007910 00000-0 51295-3 0 9809 2 37855 101.7072 059.0321 0209341 344.1800 015.2930 14.92334059164828 RS-39 1 38051U 11062C 14288.65876392 .70201582 12497-4 27925-2 0 413 2 38051 051.5964 324.1908 0006422 269.6897 186.8903 16.43533377153081 E-STAR 1 38079U 12006C 14317.12499361 .00219512 15496-4 14407-2 0 636 2 38079 069.4358 310.7276 0227076 135.9926 225.9587 15.47961955146134 GOLIAT 1 38085U 12006J 14317.76433880 .00191097 00000-0 14670-2 0 5339 2 38085 069.4394 320.4940 0264699 140.9180 221.2046 15.37610754145930 HORYU-2 1 38340U 12025D 14316.81031093 .00003178 00000-0 50082-3 0 187 2 38340 098.2846 276.7202 0013767 066.9572 293.3085 14.73128088133663 RS-40 1 38735U 12041C 14317.16298327 .00000040 00000-0 21992-3 0 7637 2 38735 082.4766 194.6581 0016491 293.3645 066.5699 12.42563014104080 PROITERES 1 38756U 12047B 14317.35767094 .00001642 00000-0 25029-3 0 4001 2 38756 098.2241 048.0894 0011043 268.1733 091.8232 14.75259568117173 BEESAT-3 1 39134U 13015E 14316.98923457 .00011264 00000-0 73925-3 0 7678 2 39134 064.8760 026.9667 0036473 283.7935 075.9128 15.07463102 86060 BEESAT-2 1 39136U 13015G 14315.46468431 .00010323 00000-0 69603-3 0 7479 2 39136 064.8762 032.8076 0036576 284.1423 075.5634 15.06523076 85811 LO-75 1 39382U 13064C 14295.69194059 .07301741 00000-0 36367-2 0 4875 2 39382 040.4713 030.2705 0002289 341.7175 018.4586 16.19795749470823 ZACUBE-1 1 39417U 13066B 14316.80895155 .00001992 00000-0 26971-3 0 4631 2 39417 097.7599 022.2416 0062916 120.3320 240.4135 14.78674860 52652 TRITON-1 1 39427U 13066M 14316.75168817 .00002012 00000-0 34018-3 0 3155 2 39427 097.7474 014.9687 0118516 137.1869 223.8641 14.65843392 52151 DELFIN3XT 1 39428U 13066N 14317.14964502 .00004121 00000-0 70499-3 0 3195 2 39428 097.7468 014.1319 0128224 139.2511 221.8371 14.64037941 52122 GOMX-1 1 39430U 13066Q 14317.40156195 .00002793 00000-0 53139-3 0 9795 2 39430 097.7403 010.8290 0156142 148.6547 212.4082 14.57271131 51945 MO-76 1 39436U 13066W 14316.73751955 .00023281 00000-0 21318-2 0 4031 2 39436 097.7660 028.3231 0024567 117.1091 243.2639 14.94708549 53025 LO-74 1 39440U 13066AA 14316.80510277 .00001964 00000-0 29239-3 0 3117 2 39440 097.7554 019.3783 0084758 126.0709 234.8388 14.73578479 52465 PUCPSAT-1 1 39442U 13066AC 14316.87202724 .00004623 00000-0 51694-3 0 3105 2 39442 097.7660 026.7795 0035521 115.9762 244.5120 14.86943296 51716 SHINAISAT 1 39572U 14009A 14317.81207231 .00573103 00000-0 70705-3 0 4097 2 39572 064.9943 235.5383 0012401 267.6708 092.3542 16.07313838 40735 TEIKYOSAT 1 39576U 14009E 14297.85867254 .09345816 76764-5 25176-3 0 4374 2 39576 064.9818 300.5833 0008491 317.3597 044.3862 16.45008906 37698 CO-77 1 39577U 14009F 14244.78324653 .10543803 76292-5 32273-3 0 3795 2 39577 064.9920 123.7668 0014904 269.7208 091.1897 16.43552757 29380 SPROUT 1 39770U 14029E 14317.33951068 .00002330 00000-0 29285-3 0 1903 2 39770 097.8726 052.2415 0009921 179.0840 181.0384 14.83013339 25632 POPSAT-HIP1 1 40028U 14033U 14317.37242705 .00003918 00000-0 45728-3 0 4503 2 40028 097.9699 212.2803 0014571 161.0347 199.1408 14.85685527 21728 EO-80 1 40032U 14033Y 14317.26056952 .00003525 00000-0 41469-3 0 4381 2 40032 097.9647 212.0431 0012722 156.4434 203.7366 14.85436356 21710 VELOX-1 1 40057U 14034E 14317.45026488 .00003851 00000-0 58596-3 0 4371 2 40057 098.2384 026.9670 0011258 202.2610 157.8125 14.74538575 20079 DAURIA DX 1 1 40071U 14037C 14317.34003353 .00001808 00000-0 24786-3 0 4109 2 40071 098.3859 014.6380 0007913 204.8186 155.2659 14.79773769 18863 UKUBE-1 1 40074U 14037F 14317.46042223 .00003741 00000-0 49117-3 0 4118 2 40074 098.3868 014.9754 0004092 208.1127 151.9881 14.80911872 18895 CHASQUI-1 1 40117U 98067ET 14317.70452830 .00149373 00000-0 14874-2 0 2736 2 40117 051.6402 074.8598 0008309 315.6917 044.3928 15.64962442 13542 HODOYOSHI-1 1 40299U 14070B 14317.36523505 .00007926 00000-0 40392-3 0 234 2 40299 097.4745 036.7137 0014323 158.6971 265.4181 15.16949853 1064 CHUBUSAT-1 1 40300U 14070C 14317.31342212 .00008549 00000-0 46054-3 0 239 2 40300 097.4724 036.6380 0024206 160.2776 286.9480 15.14797550 1058 QSAT-EOS 1 40301U 14070D 14317.32577537 .00006327 00000-0 36444-3 0 257 2 40301 097.4690 036.6197 0035910 160.9120 288.8356 15.12205927 1065 TSUBAME 1 40302U 14070E 14317.39884528 .00010320 00000-0 62441-3 0 238 2 40302 097.4661 036.6657 0046545 160.7192 267.0867 15.09894057 1068 /EX